Date String (YYYY-MM-DD hh:mm:ss) UTC,Instrument flags,Ambient pressure (hPa),Sample flow (lpm),Bypass flow (lpm),Sample temperature (°C),Ambient temperature (°C),ASC tube jacket temperature (°C),LED temperature (°C),Box temperature (°C),Sample RH (%),Span deviation,Mass concentration (μg/m³),Mass concentration (μg/m³),Mass concentration (μg/m³)
DateTimeUTC,F1_M11,P_M11,Q1_M11,Q2_M11,T1_M11,T2_M11,T3_M11,T4_M11,T5_M11,U1_M11,ZSPAN_M11,X2_M11,X0_M11,X1_M11
2023-03-13 02:00:00,,0825.5,5.01,0.00,22.2,21.4,00.0,30.9,24.1,16.1,-000.8,0006.55,0009.92,0006.05
2023-03-13 02:01:00,,0825.5,5.00,0.00,22.2,22.4,00.0,30.9,24.2,16.0,-000.5,0006.52,0009.76,0006.06
2023-03-13 02:02:00,,0825.4,5.00,0.00,22.4,22.8,00.0,30.9,24.4,15.9,-000.4,0006.52,0010.13,0006.05
2023-03-13 02:03:00,,0825.5,4.97,0.00,22.4,22.4,00.0,31.0,24.4,15.8,-000.3,0006.52,0010.17,0006.04
2023-03-13 02:04:00,,0825.5,4.99,0.00,22.4,22.0,00.0,31.0,24.3,15.8,-000.3,0006.49,0010.46,0006.05
2023-03-13 02:05:00,,0825.5,5.00,0.00,22.4,21.7,00.0,31.0,24.2,15.8,-000.7,0006.49,0010.66,0006.07
2023-03-13 02:06:00,,0825.5,5.00,0.00,22.4,21.4,00.0,31.0,24.2,15.8,-001.1,0006.49,0010.80,0006.07
2023-03-13 02:07:00,,0825.5,5.01,0.00,22.4,21.2,00.0,31.0,24.2,15.9,-001.3,0006.48,0010.79,0006.07
2023-03-13 02:08:00,,0825.5,5.00,0.00,22.4,21.1,00.0,31.1,24.2,15.9,-001.6,0006.47,0010.70,0006.07
2023-03-13 02:09:00,,0825.5,5.00,0.00,22.4,21.0,00.0,31.1,24.1,15.9,-001.8,0006.46,0010.60,0006.07
2023-03-13 02:10:00,,0825.5,5.00,0.00,22.4,20.9,00.0,31.1,24.1,15.9,-001.8,0006.48,0010.89,0006.07
2023-03-13 02:11:00,,0825.5,5.00,0.00,22.3,20.8,00.0,31.1,24.1,15.9,-001.7,0006.45,0010.82,0006.07
2023-03-13 02:12:00,,0825.5,5.00,0.00,22.3,20.8,00.0,31.0,24.1,16.0,-001.6,0006.49,0011.05,0006.07
2023-03-13 02:13:00,,0825.5,5.00,0.00,22.3,20.7,00.0,31.0,24.1,16.0,-001.5,0006.53,0011.74,0006.08
2023-03-13 02:14:00,,0825.5,5.00,0.00,22.3,20.7,00.0,31.0,24.0,16.1,-001.5,0006.55,0011.62,0006.09
2023-03-13 02:15:00,,0825.6,5.00,0.00,22.3,20.6,00.0,31.0,24.0,16.0,-001.7,0006.57,0011.92,0006.09
2023-03-13 02:16:00,,0825.6,4.99,0.00,22.3,20.6,00.0,31.0,24.0,16.1,-001.7,0006.57,0012.11,0006.07
2023-03-13 02:17:00,,0825.6,5.01,0.00,22.2,20.6,00.0,31.0,24.0,16.1,-001.2,0006.54,0011.73,0006.07
2023-03-13 02:18:00,,0825.6,5.00,0.00,22.2,20.6,00.0,31.0,23.9,16.0,-001.4,0006.53,0011.71,0006.07
2023-03-13 02:19:00,,0825.6,4.99,0.00,22.2,20.5,00.0,31.0,23.9,16.0,-001.3,0006.53,0011.70,0006.07
2023-03-13 02:20:00,,0825.6,4.98,0.00,22.2,20.5,00.0,31.0,23.9,16.1,-001.3,0006.55,0011.74,0006.07
2023-03-13 02:21:00,,0825.6,5.00,0.00,22.2,20.5,00.0,31.0,23.9,16.1,-001.0,0006.55,0011.61,0006.08
2023-03-13 02:22:00,,0825.6,5.01,0.00,22.1,20.4,00.0,31.0,23.8,16.1,-000.9,0006.57,0011.85,0006.08
2023-03-13 02:23:00,,0825.6,5.01,0.00,22.1,20.4,00.0,31.0,23.8,16.1,-000.8,0006.56,0011.71,0006.07
2023-03-13 02:24:00,,0825.6,5.00,0.00,22.1,20.4,00.0,30.9,23.8,16.1,-000.8,0006.54,0010.82,0006.07
2023-03-13 02:25:00,,0825.7,5.01,0.00,22.1,20.5,00.0,30.9,23.8,16.0,-001.4,0006.53,0010.77,0006.07
2023-03-13 02:26:00,,0825.7,5.01,0.00,22.1,21.3,00.0,30.9,24.0,16.0,-001.8,0006.53,0010.28,0006.07
2023-03-13 02:27:00,,0825.7,4.99,0.00,22.2,22.3,00.0,30.9,24.2,15.8,-001.6,0006.53,0009.85,0006.07
2023-03-13 02:28:00,,0825.7,4.98,0.00,22.4,22.9,00.0,30.9,24.4,15.8,-002.0,0006.53,0009.97,0006.07
2023-03-13 02:29:00,,0825.7,4.94,0.00,22.4,22.5,00.0,31.0,24.4,15.7,-001.9,0006.53,0010.01,0006.07
2023-03-13 02:30:00,,0825.7,5.00,0.00,22.4,22.0,00.0,31.0,24.3,15.7,-002.1,0006.55,0010.05,0006.09
2023-03-13 02:31:00,,0825.7,5.01,0.00,22.4,21.7,00.0,31.0,24.2,15.6,-001.8,0006.55,0010.12,0006.09
2023-03-13 02:32:00,,0825.7,5.01,0.00,22.4,21.5,00.0,31.0,24.2,15.6,-001.8,0006.55,0010.10,0006.09
2023-03-13 02:33:00,,0825.7,4.99,0.00,22.4,21.3,00.0,31.1,24.1,15.6,-002.0,0006.58,0009.78,0006.10
2023-03-13 02:34:00,,0825.7,5.01,0.00,22.4,21.1,00.0,31.1,24.1,15.7,-002.0,0006.55,0009.70,0006.10
2023-03-13 02:35:00,,0825.7,5.00,0.00,22.3,20.9,00.0,31.1,24.1,15.8,-002.4,0006.57,0009.82,0006.11
2023-03-13 02:36:00,,0825.9,4.99,0.00,22.3,20.8,00.0,31.1,24.1,15.8,-002.3,0006.55,0009.82,0006.10
2023-03-13 02:37:00,,0826.2,5.00,0.00,22.3,20.7,00.0,31.0,24.0,16.0,-001.9,0006.56,0009.83,0006.11
2023-03-13 02:38:00,,0825.9,5.00,0.00,22.3,20.7,00.0,31.0,23.9,16.0,-002.4,0006.55,0009.88,0006.11
2023-03-13 02:39:00,,0826.0,5.00,0.00,22.2,20.7,00.0,31.0,23.9,16.1,-002.5,0006.54,0009.87,0006.11
2023-03-13 02:40:00,,0825.9,5.00,0.00,22.2,20.6,00.0,31.0,23.9,16.1,-002.5,0006.53,0009.81,0006.11
2023-03-13 02:41:00,,0825.9,5.00,0.00,22.2,20.6,00.0,31.0,23.9,16.1,-002.2,0006.53,0009.82,0006.11
2023-03-13 02:42:00,,0825.9,5.00,0.00,22.2,20.6,00.0,31.0,23.9,16.1,-002.2,0006.54,0009.81,0006.12
2023-03-13 02:43:00,,0825.9,5.01,0.00,22.2,20.5,00.0,31.0,23.9,16.1,-002.3,0006.55,0009.79,0006.13
2023-03-13 02:44:00,,0825.9,4.99,0.00,22.2,20.5,00.0,31.0,23.9,16.1,-002.1,0006.56,0009.76,0006.14
2023-03-13 02:45:00,,0826.0,5.01,0.00,22.1,20.4,00.0,31.0,23.9,16.0,-002.0,0006.59,0009.86,0006.16
2023-03-13 02:46:00,,0825.9,5.00,0.00,22.1,20.4,00.0,31.0,23.8,16.0,-001.7,0006.61,0010.39,0006.17
2023-03-13 02:47:00,,0826.0,5.00,0.00,22.1,20.4,00.0,30.9,23.8,16.0,-001.5,0006.62,0010.48,0006.18
2023-03-13 02:48:00,,0826.0,4.99,0.00,22.1,20.9,00.0,30.9,23.9,16.0,-001.4,0006.63,0010.41,0006.19
2023-03-13 02:49:00,,0826.0,5.02,0.00,22.2,21.9,00.0,30.9,24.1,15.9,-000.3,0006.66,0010.40,0006.21
2023-03-13 02:50:00,,0826.0,4.99,0.00,22.3,22.8,00.0,30.9,24.4,15.7,-000.2,0006.66,0010.43,0006.21
2023-03-13 02:51:00,,0826.0,4.99,0.00,22.4,22.6,00.0,31.0,24.4,15.7,-000.3,0006.67,0010.41,0006.21
2023-03-13 02:52:00,,0826.0,5.01,0.00,22.4,22.2,00.0,31.0,24.3,15.7,-000.3,0006.65,0010.32,0006.22
2023-03-13 02:53:00,,0826.0,5.00,0.00,22.4,21.8,00.0,31.0,24.2,15.6,0000.0,0006.63,0010.35,0006.21
2023-03-13 02:54:00,,0826.0,5.01,0.00,22.4,21.6,00.0,31.1,24.2,15.6,0000.1,0006.61,0010.41,0006.20
2023-03-13 02:55:00,,0826.0,5.00,0.00,22.4,21.4,00.0,31.1,24.2,15.6,-000.5,0006.59,0010.55,0006.20
2023-03-13 02:56:00,,0826.0,5.00,0.00,22.4,21.2,00.0,31.1,24.1,15.7,-000.3,0006.59,0010.60,0006.18
2023-03-13 02:57:00,,0826.1,5.00,0.00,22.4,21.1,00.0,31.1,24.1,15.7,-000.6,0006.59,0010.00,0006.18
2023-03-13 02:58:00,,0826.0,5.00,0.00,22.4,21.0,00.0,31.1,24.1,15.7,-000.0,0006.60,0009.97,0006.17
2023-03-13 02:59:00,,0826.0,5.00,0.00,22.3,20.9,00.0,31.1,24.1,15.8,0000.1,0006.60,0010.16,0006.17
